Regional Weather Roundup
Issued by NWS

Home | Current Version | Previous Version | Text Only | Print | Product List | Glossary Off
Versions: 1 2 3 4 5 6 7 8 9 10 11 12 13 14 15 16 17 18 19 20 21 22 23 24 25 26 27 28 29 30 31 32 33 34 35 36 37 38 39 40 41 42 43 44 45 46 47 48 49 50

000
ASUS43 KLMK 201910
RWRKY
KENTUCKY REGIONAL WEATHER ROUNDUP
NATIONAL WEATHER SERVICE LOUISVILLE KY
300 PM EDT SUN AUG 20 2017

NOTE "FAIR" INDICATES FEW OR NO CLOUDS BELOW 12,000 FEET
WITH NO SIGNIFICANT WEATHER AND/OR OBSTRUCTIONS TO VISIBILITY.

KYZ001>023-026-027-061>063-070>075-202000-
WESTERN AND SOUTH CENTRAL KENTUCKY

CITY           SKY/WX    TMP DP  RH WIND       PRES   REMARKS
PADUCAH        SUNNY     93  70  46 S6        30.03F HX  99
HENDERSON      SUNNY     91  71  51 S6        30.03F HX  97
OWENSBORO      SUNNY     92  71  50 SW10      30.04F HX  98
HOPKINSVILLE   SUNNY     91  69  48 SE9       30.06F HX  95
BOWLING GREEN  MOSUNNY   90  65  43 E3        30.08F HX  92
GLASGOW        PTSUNNY   91  65  42 SW3       30.09F HX  93
$$

KYZ024-025-028>034-038-045-046-053-202000-
NORTH CENTRAL KENTUCKY

CITY           SKY/WX    TMP DP  RH WIND       PRES   REMARKS
LOUISVILLE/SDF PTSUNNY   89  68  49 SW9       30.06F HX  93
LOUISVILLE/LOU CLOUDY    89  71  55 SW3       30.07F HX  95
FORT KNOX      MOSUNNY   89  69  51 S8        30.07S HX  94
$$

KYZ035>037-039>044-047>052-055>060-089>105-202000-
NORTHEAST KENTUCKY

CITY           SKY/WX    TMP DP  RH WIND       PRES   REMARKS
LEXINGTON      MOSUNNY   89  65  44 W8        30.11F HX  91
COVINGTON      MOSUNNY   89  68  49 SW8       30.08F HX  93
FRANKFORT      PTSUNNY   89  66  46 SW8       30.08F HX  91
$$

KYZ054-064>069-076>088-106>120-202000-
SOUTHEAST KENTUCKY

CITY           SKY/WX    TMP DP  RH WIND       PRES   REMARKS
JACKSON        MOSUNNY   86  67  52 CALM      30.14F
LONDON         MOSUNNY   87  63  44 VRB3      30.14F
SOMERSET       SUNNY     86  61  42 W3        30.13F
MIDDLESBORO    CLOUDY    86  67  53 S3        30.14S
MONTICELLO     CLEAR     89  63  41 NW9       30.13F HX  90
$$




USA.gov is the U.S. government's official web portal to all federal, state and local government web resources and services.